Simultaneous Nadir Overpasses (SNOs) Predictions

Prediction of SNOs between GOES-16 and TERRA Satellite Orbit:

Table of predicted SNOs for the next 14.0 days since TLE Epoch: 5/5/2017
Index Date Time (GOES-16) GOES-16 Lat,Lon TERRA Lat,Lon Distance(km) Time Diff (sec)
1 05/06/2017 04:16:44 0.01, -89.49 0.54, -87.00 283.49 80
2 05/06/2017 16:38:00 -0.01, -89.50 0.53, -92.16 301.71 80
3 05/08/2017 16:28:28 -0.01, -89.51 -0.07, -89.20 35.63 80
4 05/10/2017 16:16:17 -0.01, -89.53 -0.74, -86.25 373.37 80
5 05/11/2017 04:37:41 0.01, -89.52 -0.37, -91.44 217.16 80
6 05/13/2017 04:22:49 0.00, -89.54 0.26, -88.48 120.95 80
7 05/13/2017 16:44:04 -0.00, -89.54 0.87, -93.63 464.60 80
8 05/15/2017 04:10:36 -0.00, -89.55 0.83, -85.51 459.27 80
9 05/15/2017 16:31:52 0.01, -89.56 0.23, -90.67 126.11 80
10 05/17/2017 16:22:19 0.01, -89.58 -0.36, -87.70 212.67 80
11 05/18/2017 04:43:43 -0.01, -89.58 -0.73, -92.90 376.89 80




NCC Satellite Simultaneous Nadir Overpasses (SNOs) Prediction Service
